Probability
0 0 0 0 0 0 0 0 0 0 0 0 0 0 1 2 3 3 3 2 2 3 3 4 5 5 7 10 12 10 7 5 5 5 3 1 0 0 1 2 2 1 0 0
0 0 0 0 0 0 0 0 0 0 0 0 0 0 1 1 2 3 4 3 2 2 3 4 5 5 8 12 14 13 11 8 6 5 4 2 1 0 1 1 1 0 0 0
0 0 0 0 0 0 0 0 0 0 0 0 0 0 0 0 1 2 4 4 2 1 2 3 5 5 8 13 16 16 13 10 8 6 5 5 4 2 1 1 0 0 0 0
0 0 0 0 0 0 0 0 0 0 0 0 0 0 0 0 0 1 3 3 2 1 1 3 4 5 8 12 16 16 13 10 9 8 8 9 8 6 2 0 0 0 0 1
0 0 0 0 0 0 0 0 0 0 0 0 0 0 0 0 0 0 1 1 1 0 0 2 4 5 8 13 17 17 13 10 10 8 8 10 9 6 3 0 0 0 0 1
0 0 0 0 0 0 0 0 0 0 0 0 0 0 0 0 0 0 1 1 1 1 1 2 4 6 8 13 17 18 15 12 10 8 7 8 8 5 3 1 1 1 1 1
0 0 0 0 0 0 0 0 0 0 0 0 0 0 0 0 0 0 1 2 3 4 3 4 5 7 10 13 17 18 17 14 11 8 8 8 6 4 3 3 2 2 1 2
0 0 0 0 0 0 0 0 0 0 0 0 0 0 0 0 1 1 1 1 3 5 6 6 8 10 12 15 17 18 19 17 14 11 10 10 7 5 4 3 3 2 3 3
0 0 0 0 0 0 0 0 0 0 0 0 0 1 1 1 2 2 1 2 4 6 7 8 10 12 15 16 18 20 21 20 17 15 15 13 10 8 7 6 4 4 4 6
0 0 0 0 0 0 0 0 0 0 0 0 0 1 2 3 4 4 3 4 6 7 8 9 11 13 15 16 19 23 24 23 21 19 18 16 14 12 11 9 7 6 6 7
0 0 0 0 0 0 0 0 0 0 0 0 0 1 2 3 4 5 5 6 7 8 9 11 13 15 16 19 22 25 27 26 23 22 22 18 15 14 11 9 7 6 5 6
0 0 0 0 0 0 0 0 0 0 0 0 0 1 2 2 3 5 7 8 8 9 11 13 17 19 18 20 23 26 28 27 24 24 23 19 15 13 10 7 6 4 3 3
0 0 0 0 0 0 0 0 0 0 0 0 0 0 1 2 4 6 9 9 9 11 13 15 18 19 18 19 22 25 26 24 22 23 23 20 16 13 10 6 4 1 1 2
0 0 0 0 0 0 0 0 0 0 0 0 0 1 2 3 4 8 9 8 10 12 13 15 18 19 19 20 22 23 22 20 20 21 23 21 17 13 9 5 2 1 1 2
0 0 0 0 0 0 0 0 0 0 0 0 0 1 2 3 5 8 9 9 11 12 13 17 19 19 20 21 24 24 20 18 19 19 20 20 17 13 8 4 2 0 1 3
0 0 0 0 0 0 0 0 0 0 0 0 0 0 2 4 6 7 9 12 13 13 16 20 21 20 19 20 23 23 20 18 18 18 17 17 16 12 8 4 2 2 3 5
0 0 0 0 0 0 0 0 0 0 0 0 0 1 3 6 8 7 9 14 16 17 18 20 20 18 16 17 20 22 21 20 20 18 16 16 16 14 8 5 3 3 5 7
0 0 0 0 0 0 1 1 1 0 0 0 1 3 6 8 10 9 10 14 18 18 17 16 15 13 12 15 20 23 23 22 20 18 17 16 16 13 9 5 3 4 5 6
0 0 0 0 0 0 1 2 2 1 0 0 2 5 8 9 12 12 11 16 20 18 14 12 11 9 11 16 20 21 21 20 18 18 17 15 13 11 9 6 4 4 5 6
0 0 0 0 0 0 1 1 2 1 1 1 3 6 8 9 11 12 14 18 22 20 15 10 9 8 10 14 16 15 14 15 16 17 16 13 11 10 8 7 6 6 6 6
0 0 0 0 0 0 0 1 2 1 0 1 4 6 7 7 9 11 14 18 21 21 17 13 11 9 10 11 12 12 12 13 15 17 16 15 13 11 9 8 8 7 6 5
0 0 0 0 0 0 0 1 2 1 0 2 5 6 7 9 10 13 16 18 20 19 17 16 14 12 12 12 11 11 11 12 14 16 16 16 15 14 12 10 8 7 6 5
0 0 0 0 0 0 1 1 1 0 2 5 7 7 9 11 12 15 18 20 19 18 16 15 14 14 14 13 12 11 10 11 12 14 15 15 14 14 14 11 8 7 6 6
0 0 0 1 2 3 3 1 0 1 4 8 9 8 8 9 11 13 16 18 18 16 15 12 11 13 13 12 11 11 10 11 11 12 14 14 13 12 12 10 7 6 6 6
0 0 1 3 5 6 5 4 2 3 6 9 10 8 7 7 8 11 13 15 16 15 13 11 10 10 11 11 12 12 12 11 11 12 13 13 11 10 9 8 6 4 4 3
0 1 2 5 6 7 6 5 5 5 7 9 9 8 6 6 7 10 13 14 15 14 12 11 10 10 10 11 13 13 12 11 11 12 13 12 9 8 8 7 5 2 1 1
Wind_Speed
3 5 2 4 5 5 5 4 1 2 1 3 2 2 5 6 6 6 6 7 7 8 6 6 7 7 6 6 7 7 7 6 5 3 3 2 2 1 1 2 3 3 3 3
5 0 3 4 3 4 4 3 1 1 1 2 2 1 3 6 8 8 8 8 8 6 5 6 7 7 8 8 8 7 7 7 6 4 3 2 2 2 2 1 2 3 3 3
4 3 3 5 4 4 2 4 4 2 2 4 3 3 1 2 3 3 5 6 6 8 8 7 8 8 7 8 9 8 7 6 6 5 3 2 1 1 1 1 1 2 3 3
2 3 3 4 3 5 2 3 5 3 4 1 2 1 5 3 3 4 6 6 7 8 8 8 8 8 9 9 8 7 7 7 6 6 5 5 4 3 3 2 2 2 3 3
3 2 3 4 5 6 4 3 4 3 4 2 3 1 6 1 4 7 8 8 8 7 8 9 9 9 8 7 7 6 7 6 6 6 6 5 4 3 2 2 2 2 2 3
3 2 3 4 2 5 6 7 7 6 5 2 2 2 6 4 7 6 6 8 8 8 8 7 7 6 6 6 6 6 6 6 5 6 6 6 6 4 3 3 3 2 2 2
1 2 2 3 4 3 5 7 5 5 4 4 2 2 8 6 6 6 7 8 8 7 8 8 8 8 7 7 7 7 7 6 6 6 6 6 6 6 5 4 4 3 2 2
3 3 3 3 6 6 4 9 8 6 4 3 2 4 8 5 4 5 5 4 4 6 7 8 9 9 8 8 8 7 7 6 6 7 6 6 5 4 4 4 4 3 3 3
6 4 4 2 3 9 7 3 6 8 3 1 3 5 8 3 3 2 2 2 3 4 6 7 7 8 8 8 8 8 8 7 7 6 6 5 5 5 4 4 3 3 2 2
7 2 3 1 5 5 6 9 6 6 6 2 3 4 5 4 4 3 2 2 3 2 3 4 5 6 7 7 6 6 6 6 6 6 5 4 4 5 4 3 3 3 3 2
4 4 2 2 3 5 5 5 6 5 5 7 2 7 6 6 4 4 4 3 2 2 2 2 3 4 4 5 5 6 6 5 5 5 5 4 4 4 3 3 3 3 2 2
4 6 1 3 3 2 5 7 8 7 3 4 4 8 4 3 3 3 3 2 1 1 1 2 3 4 4 5 5 5 5 5 4 4 4 4 3 3 3 2 2 2 2 2
6 6 3 3 5 2 4 3 4 7 6 5 5 7 3 1 1 2 2 2 0 1 2 3 4 4 5 4 5 4 4 4 4 4 4 4 3 3 3 2 1 1 2 2
7 5 7 8 7 4 3 3 5 7 5 5 6 6 5 3 3 2 1 1 1 2 2 3 3 3 4 5 5 4 4 4 4 4 4 3 3 3 2 2 2 2 2 2
6 4 3 3 2 3 3 4 6 5 8 8 8 7 8 6 5 3 1 1 2 2 2 3 3 3 4 4 4 4 4 4 4 4 3 3 2 2 2 2 2 2 2 2
4 5 3 1 0 2 2 2 5 4 5 5 3 6 5 2 1 1 2 3 3 2 2 3 4 4 4 3 4 4 4 4 4 4 4 3 4 3 3 3 3 3 2 2
3 5 4 1 1 2 1 3 4 3 3 7 7 8 3 2 3 4 3 4 4 3 3 3 3 3 3 2 3 4 4 4 5 4 3 3 4 3 3 3 4 4 3 3
6 5 4 3 3 3 7 3 3 4 2 3 3 3 5 4 2 1 2 4 4 4 3 3 3 3 2 3 3 4 4 4 4 4 4 3 3 3 3 3 3 3 3 3
4 7 5 4 3 3 4 1 2 3 2 2 4 3 2 3 3 2 1 3 3 3 3 3 4 4 3 3 3 5 5 5 4 4 3 3 4 4 4 4 3 3 3 3
5 5 6 5 4 6 6 2 1 3 2 2 5 6 5 5 3 3 2 4 4 4 3 4 4 5 5 4 5 5 5 4 3 3 3 3 3 4 4 4 3 3 3 3
3 4 4 4 3 6 4 4 1 4 6 3 4 5 5 4 4 3 3 3 4 4 4 4 5 4 3 4 5 5 4 3 2 3 3 4 3 4 4 4 3 3 4 4
4 5 4 5 3 6 3 1 4 5 2 2 2 2 3 3 3 4 4 4 5 5 4 4 4 4 3 4 5 5 3 2 3 4 4 4 4 4 4 5 4 4 4 5
2 5 5 6 6 4 2 2 3 2 2 1 2 2 5 5 4 4 5 4 4 5 4 4 4 4 4 3 4 4 2 2 4 5 4 4 5 4 4 5 4 4 3 3
1 1 2 1 3 3 2 2 1 0 2 1 2 3 4 5 5 5 5 4 4 4 4 4 5 5 4 3 4 3 3 3 4 5 5 5 5 5 5 4 3 3 3 3
2 1 1 1 3 3 3 2 1 1 2 4 3 4 5 7 6 6 5 4 3 3 3 4 5 5 4 3 4 4 3 4 5 5 5 5 5 5 5 5 4 3 3 2
2 3 4 4 4 2 3 3 2 1 2 3 3 3 4 6 7 6 5 4 4 4 4 4 4 4 4 4 4 4 3 4 5 5 4 4 4 4 4 5 6 10 8 9
Wind_Direction
54 78 146 185 168 153 136 126 140 249 233 121 158 184 196 177 185 195 199 201 208 212 202 186 182 181 181 185 186 189 185 174 156 146 157 165 193 188 189 197 197 194 194 187
50 259 210 160 146 126 121 116 131 331 9 121 141 233 207 189 200 202 202 204 207 205 194 191 185 185 188 193 193 191 191 179 173 170 164 166 163 176 182 188 196 201 198 193
156 226 176 144 137 132 146 163 178 174 46 47 81 359 288 245 219 213 211 205 202 200 203 201 194 190 189 196 194 192 190 187 180 167 140 119 99 82 129 190 212 218 206 202
201 242 162 148 169 147 215 204 162 140 101 353 81 262 283 254 240 229 223 212 211 207 201 199 198 195 195 199 195 186 183 189 183 168 173 179 185 197 206 198 201 217 215 212
220 189 153 176 196 160 179 109 112 112 120 73 24 130 287 307 252 246 230 219 218 211 202 201 201 201 197 189 187 186 184 186 182 181 183 184 196 201 191 185 198 219 227 220
226 231 193 195 163 144 128 74 59 51 73 72 261 157 279 242 232 244 232 225 219 210 203 202 196 188 187 180 181 183 184 189 183 186 184 188 193 192 191 196 203 224 229 224
309 287 238 156 105 73 100 91 49 19 27 250 281 180 251 253 247 237 235 227 218 208 200 196 187 186 187 184 185 180 179 188 183 188 194 195 197 194 201 202 205 212 222 226
158 262 237 181 162 156 155 135 151 171 196 266 326 231 256 265 275 264 245 230 214 210 204 201 194 190 190 188 184 177 181 191 189 192 199 196 192 193 201 203 198 204 216 225
165 238 284 224 156 131 127 135 146 121 127 81 289 290 302 299 322 317 277 229 225 219 208 203 193 187 185 187 187 183 185 191 191 193 196 191 189 191 199 201 201 208 215 217
152 189 293 297 83 41 130 140 105 112 136 191 296 283 259 276 290 298 293 270 258 248 223 203 188 184 182 184 179 171 178 188 189 186 191 192 189 194 195 192 207 209 215 212
131 140 322 52 147 161 106 92 101 105 139 146 204 266 234 226 240 252 261 267 256 242 228 206 181 172 158 150 153 161 169 174 177 180 182 184 181 179 179 197 214 204 200 193
131 118 169 268 282 180 139 150 142 141 175 154 160 260 276 218 242 239 255 275 250 230 197 144 131 127 127 135 143 154 162 166 174 169 167 173 164 159 168 189 212 191 189 185
135 114 92 5 351 29 98 121 124 118 115 145 161 258 301 331 259 235 235 262 284 85 95 106 117 130 137 141 141 149 156 159 153 147 151 153 153 152 159 162 186 180 169 156
118 113 153 180 207 181 145 143 143 122 137 179 209 237 283 283 260 267 258 235 82 71 87 98 107 124 134 138 141 148 149 142 139 134 143 151 158 162 162 148 147 146 139 134
106 130 168 197 203 154 148 167 167 163 172 174 212 217 241 235 229 233 211 152 102 83 97 111 112 118 123 127 134 139 137 133 134 135 141 146 134 125 117 117 119 114 114 118
83 130 133 82 304 152 126 175 175 183 173 179 178 240 242 223 174 181 169 156 147 151 151 128 113 117 121 128 131 130 133 131 129 136 140 129 122 122 121 119 114 107 96 88
94 117 117 203 298 86 260 223 178 178 187 172 193 222 187 170 194 201 187 169 169 166 147 138 132 126 121 123 123 129 132 127 129 133 132 127 126 127 126 123 115 114 107 94
129 110 117 124 104 199 239 247 184 163 180 199 211 203 187 186 191 202 174 165 169 166 144 135 124 106 88 93 109 114 114 121 126 126 124 121 124 121 118 113 111 109 107 108
136 128 115 120 151 253 291 253 155 161 223 199 185 184 154 124 82 3 142 146 155 153 145 140 130 117 110 103 107 111 113 118 122 128 135 135 135 132 123 116 114 112 111 104
64 92 112 125 146 213 239 270 257 118 253 230 176 178 166 138 143 235 166 127 121 119 120 120 112 112 114 111 112 110 110 115 126 136 139 132 133 135 131 128 122 111 109 105
74 70 114 140 173 251 260 292 107 159 231 218 184 183 171 184 196 173 116 111 119 116 108 108 109 105 103 105 110 109 110 118 123 115 111 109 113 122 122 118 114 113 108 103
157 143 156 140 164 242 299 57 170 217 238 164 173 176 163 153 115 109 112 112 109 105 97 96 97 88 79 88 105 107 103 100 99 101 102 104 103 105 110 111 107 104 107 105
172 183 175 177 202 236 260 227 257 222 179 178 162 162 144 129 122 111 110 109 102 104 99 89 95 90 79 78 98 107 99 99 105 106 104 99 92 87 98 109 110 103 104 109
284 140 134 206 278 292 299 307 327 153 158 142 136 135 134 135 132 123 119 114 107 100 102 101 99 92 77 68 76 92 101 101 109 109 104 99 95 87 80 83 89 97 101 111
237 155 117 250 289 334 342 339 338 27 77 91 93 116 134 132 131 128 120 112 111 104 99 102 108 106 93 79 75 75 82 98 100 98 95 94 96 100 91 79 63 75 74 110
215 180 170 214 222 203 268 313 352 69 94 110 108 97 111 128 133 124 121 123 126 120 111 103 97 98 95 88 78 70 74 93 103 100 98 100 105 104 104 104 83 57 67 71